Weather History for Peru, IL

Change the Weather History Date:

Sunday, April 21, 2013

  Actual Average Record
Temperature  
Mean Temperature 45 °F -  
Max Temperature 55 °F 64 °F 91 °F (1987)
Min Temperature 35 °F 41 °F 29 °F (1988)
Degree Days  
Heating Degree Days 20    
Moisture  
Dew Point 32 °F    
Average Humidity 58    
Maximum Humidity 75    
Minimum Humidity 48    
Precipitation  
Precipitation 0.00 in - - ()
Sea Level Pressure  
Sea Level Pressure 30.38 in    
Wind  
Wind Speed 14 mph (ESE)    
Max Wind Speed 22 mph    
Max Gust Speed 29 mph    
Visibility 10 miles    
Events      
Averages and records for this station are not official NWS values.
T = Trace of Precipitation, MM = Missing Value Source: NWS Daily Summary

Daily Weather History Graph

Daily Weather History Graph

Search for Another Location

Airport:

Trip Planner

Search our weather history database for the weather conditions in past years. The results will help you decide how hot, cold, wet, or windy it might be!

Date:

Astronomy

Apr. 21, 2013 Rise Set
Actual Time 6:07 AM CDT 7:43 PM CDT
Civil Twilight 5:38 AM CDT 8:12 PM CDT
Nautical Twilight 5:03 AM CDT 8:48 PM CDT
Astronomical Twilight 4:25 AM CDT 9:25 PM CDT
Moon 3:26 PM CDT (4/21) 3:32 AM CDT (4/21)
Length of Visible Light 14h 34m
Length of Day
13h 36m
Waxing Gibbous, 80% of the Moon is Illuminated
Apr 21
Waxing Gibbous
Apr 25
Full
May 2
Last Quarter
May 9
New
May 17
First Quarter

Hourly Weather History & Observations

Time (CDT) Temp. Windchill Dew Point Humidity Pressure Visibility Wind Dir Wind Speed Gust Speed Precip Events Conditions
12:15 AM 38.3 °F 33.2 °F 28.2 °F 67% 30.39 in 10.0 mi ESE 6.9 mph - N/A   Clear
12:35 AM 37.9 °F 32.7 °F 28.4 °F 69% 30.39 in 10.0 mi ESE 6.9 mph - N/A   Clear
12:55 AM 36.9 °F 31.4 °F 29.1 °F 74% 30.39 in 10.0 mi ESE 6.9 mph - N/A   Clear
1:15 AM 36.9 °F 31.4 °F 28.4 °F 71% 30.40 in 10.0 mi ESE 6.9 mph - N/A   Clear
1:35 AM 36.1 °F 30.6 °F 28.8 °F 75% 30.40 in 10.0 mi ESE 6.9 mph - N/A   Clear
4:15 AM 35.6 °F 27.1 °F 27.9 °F 73% 30.42 in 10.0 mi ESE 12.7 mph - N/A   Scattered Clouds
4:35 AM 35.6 °F 27.5 °F 27.9 °F 73% 30.42 in 10.0 mi ESE 11.5 mph - N/A   Clear
4:55 AM 35.6 °F 27.1 °F 27.9 °F 73% 30.42 in 10.0 mi ESE 12.7 mph - N/A   Scattered Clouds
5:15 AM 35.6 °F 28.0 °F 27.5 °F 72% 30.42 in 10.0 mi ESE 10.4 mph - N/A   Clear
5:35 AM 35.6 °F 27.1 °F 27.3 °F 72% 30.42 in 10.0 mi ESE 12.7 mph - N/A   Clear
5:55 AM 36.0 °F 27.1 °F 27.1 °F 70% 30.42 in 10.0 mi ESE 13.8 mph - N/A   Clear
6:15 AM 36.5 °F 27.0 °F 27.0 °F 68% 30.42 in 10.0 mi ESE 16.1 mph 19.6 mph N/A   Clear
6:35 AM 36.5 °F 27.0 °F 26.8 °F 68% 30.43 in 10.0 mi ESE 16.1 mph - N/A   Clear
6:55 AM 36.9 °F 27.5 °F 27.1 °F 68% 30.45 in 10.0 mi SE 16.1 mph - N/A   Clear
7:15 AM 36.9 °F 27.8 °F 26.8 °F 67% 30.45 in 10.0 mi ESE 15.0 mph - N/A   Scattered Clouds
7:35 AM 37.6 °F 31.0 °F 27.3 °F 66% 30.46 in 10.0 mi SE 9.2 mph - N/A   Scattered Clouds
7:55 AM 38.3 °F 29.7 °F 27.0 °F 64% 30.48 in 10.0 mi ESE 15.0 mph - N/A   Clear
8:15 AM 38.3 °F 30.9 °F 27.5 °F 65% 30.49 in 10.0 mi ESE 11.5 mph 20.7 mph N/A   Clear
8:35 AM 39.6 °F 31.0 °F 27.9 °F 63% 30.49 in 10.0 mi ESE 16.1 mph 21.9 mph N/A   Clear
8:55 AM 40.5 °F 31.8 °F 28.2 °F 62% 30.49 in 10.0 mi ESE 17.3 mph 21.9 mph N/A   Clear
9:15 AM 41.7 °F 34.1 °F 29.1 °F 61% 30.49 in 10.0 mi ESE 15.0 mph 21.9 mph N/A   Clear
9:35 AM 42.1 °F 33.1 °F 27.3 °F 56% 30.49 in 10.0 mi ESE 20.7 mph 26.5 mph N/A   Clear
9:55 AM 43.5 °F 36.1 °F 29.5 °F 58% 30.48 in 10.0 mi ESE 16.1 mph 23.0 mph N/A   Clear
10:15 AM 44.4 °F 36.4 °F 28.8 °F 54% 30.47 in 10.0 mi ESE 19.6 mph 24.2 mph N/A   Clear
10:35 AM 45.1 °F 36.9 °F 28.0 °F 51% 30.47 in 10.0 mi ESE 21.9 mph 28.8 mph N/A   Clear
10:55 AM 45.9 °F 37.8 °F 27.5 °F 49% 30.46 in 10.0 mi ESE 21.9 mph 27.6 mph N/A   Clear
11:15 AM 47.1 °F - 28.2 °F 48% 30.46 in 10.0 mi ESE 21.9 mph 25.3 mph N/A   Clear
11:35 AM 47.3 °F - 29.1 °F 49% 30.45 in 10.0 mi ESE 18.4 mph - N/A   Clear
11:55 AM 47.8 °F - 30.2 °F 50% 30.44 in 10.0 mi ESE 18.4 mph 26.5 mph N/A   Clear
12:15 PM 49.1 °F - 31.6 °F 51% 30.43 in 10.0 mi ESE 20.7 mph - N/A   Clear
12:35 PM 49.6 °F - 32.0 °F 51% 30.41 in 10.0 mi ESE 16.1 mph 21.9 mph N/A   Clear
12:55 PM 50.0 °F - 31.8 °F 50% 30.41 in 10.0 mi ESE 19.6 mph 24.2 mph N/A   Scattered Clouds
1:15 PM 50.7 °F - 32.0 °F 49% 30.40 in 10.0 mi ESE 18.4 mph 23.0 mph N/A   Clear
1:35 PM 51.8 °F - 33.6 °F 50% 30.39 in 10.0 mi ESE 20.7 mph 24.2 mph N/A   Clear
1:55 PM 52.2 °F - 33.8 °F 50% 30.38 in 10.0 mi ESE 17.3 mph 26.5 mph N/A   Clear
2:15 PM 52.7 °F - 34.0 °F 49% 30.37 in 10.0 mi ESE 17.3 mph 24.2 mph N/A   Clear
2:35 PM 52.9 °F - 34.5 °F 50% 30.36 in 10.0 mi ESE 20.7 mph 25.3 mph N/A   Clear
2:55 PM 53.4 °F - 34.0 °F 48% 30.36 in 10.0 mi ESE 19.6 mph 26.5 mph N/A   Clear
3:15 PM 54.7 °F - 35.6 °F 49% 30.35 in 10.0 mi ESE 18.4 mph 26.5 mph N/A   Scattered Clouds
3:35 PM 54.7 °F - 35.6 °F 49% 30.34 in 10.0 mi ESE 18.4 mph 24.2 mph N/A   Clear
3:55 PM 54.9 °F - 35.2 °F 48% 30.33 in 10.0 mi ESE 21.9 mph 26.5 mph N/A   Clear
4:15 PM 54.9 °F - 36.1 °F 49% 30.33 in 10.0 mi ESE 19.6 mph 25.3 mph N/A   Clear
4:35 PM 55.4 °F - 36.5 °F 49% 30.33 in 10.0 mi ESE 18.4 mph 21.9 mph N/A   Clear
4:55 PM 55.4 °F - 36.3 °F 49% 30.32 in 10.0 mi ESE 18.4 mph 25.3 mph N/A   Clear
5:15 PM 55.4 °F - 36.7 °F 49% 30.31 in 10.0 mi ESE 16.1 mph 23.0 mph N/A   Clear
5:35 PM 55.0 °F - 35.8 °F 48% 30.31 in 10.0 mi ESE 17.3 mph 21.9 mph N/A   Clear
5:55 PM 54.7 °F - 36.0 °F 49% 30.31 in 10.0 mi ESE 18.4 mph 24.2 mph N/A   Clear
6:15 PM 54.7 °F - 36.7 °F 51% 30.31 in 10.0 mi ESE 15.0 mph - N/A   Clear
6:35 PM 54.0 °F - 36.1 °F 51% 30.30 in 10.0 mi ESE 16.1 mph 20.7 mph N/A   Clear
6:55 PM 53.6 °F - 36.3 °F 52% 30.30 in 10.0 mi ESE 15.0 mph - N/A   Clear
7:15 PM 52.9 °F - 36.3 °F 53% 30.30 in 10.0 mi ESE 16.1 mph - N/A   Clear
7:35 PM 52.2 °F - 37.6 °F 58% 30.30 in 10.0 mi ESE 11.5 mph - N/A   Clear
7:55 PM 51.1 °F - 38.1 °F 61% 30.30 in 10.0 mi ESE 12.7 mph - N/A   Clear
8:15 PM 50.4 °F - 38.3 °F 63% 30.30 in 10.0 mi ESE 13.8 mph - N/A   Clear
8:35 PM 50.0 °F - 37.4 °F 62% 30.30 in 10.0 mi ESE 13.8 mph - N/A   Clear
8:55 PM 49.5 °F - 36.7 °F 61% 30.31 in 10.0 mi ESE 13.8 mph - N/A   Clear
9:15 PM 49.3 °F - 36.7 °F 62% 30.31 in 10.0 mi ESE 12.7 mph - N/A   Clear
9:35 PM 48.7 °F - 36.7 °F 63% 30.31 in 10.0 mi ESE 16.1 mph - N/A   Clear
9:55 PM 49.1 °F - 35.8 °F 60% 30.32 in 10.0 mi ESE 13.8 mph - N/A   Scattered Clouds
10:15 PM 48.6 °F - 35.2 °F 60% 30.31 in 10.0 mi ESE 13.8 mph - N/A   Clear
10:35 PM 48.4 °F - 34.9 °F 60% 30.31 in 10.0 mi ESE 15.0 mph - N/A   Clear
10:55 PM 48.4 °F - 34.2 °F 58% 30.30 in 10.0 mi ESE 13.8 mph 19.6 mph N/A   Clear
11:15 PM 48.9 °F - 33.8 °F 56% 30.30 in 10.0 mi ESE 16.1 mph 21.9 mph N/A   Mostly Cloudy
11:35 PM 48.4 °F - 34.0 °F 58% 30.30 in 10.0 mi ESE 16.1 mph - N/A   Mostly Cloudy
11:55 PM 47.3 °F - 34.2 °F 60% 30.30 in 10.0 mi ESE 17.3 mph 23.0 mph N/A   Scattered Clouds